Regional Weather Roundup
Issued by NWS

Home | Current Version | Previous Version | Text Only | Print | Product List | Glossary On
Versions: 1 2 3 4 5 6 7 8 9 10 11 12 13 14 15 16 17 18 19 20 21 22 23 24 25 26 27 28 29 30 31 32 33 34 35 36 37 38 39 40 41 42 43 44 45 46 47 48 49 50
423
ASUS44 KLIX 030705
RWRLA
LOUISIANA WEATHER ROUNDUP
NATIONAL WEATHER SERVICE NEW ORLEANS LA
100 AM CST TUE MAR 03 2015

NOTE: "FAIR" INDICATES FEW OR NO CLOUDS BELOW 12,000 FEET WITH NO
      SIGNIFICANT WEATHER AND/OR OBSTRUCTIONS TO VISIBILITY.
      SKY/WX - SKY CONDITION AND SIGNIFICANT WEATHER.
      TMP - AIR TEMPERATURE.    DP   - DEWPOINT TEMPERATURE.
      RH  - RELATIVE HUMIDITY.  PRES - PRESSURE.
      HX  - HEAT INDEX.         WCI  - WIND CHILL INDEX.

*  THESE STATIONS ARE NOT NWS OR FAA STATIONS AND ARE NOT UNDER
   NWS QUALITY CONTROL.

LAZ040-048-061>063-065-066-069-030800-
SOUTHEAST LOUISIANA

CITY           SKY/WX    TMP DP  RH WIND       PRES   REMARKS
N.O. AUDUBON   NOT AVBL
N.O. INTL ARPT FOG       67  65  93 SE3       30.16F VSB 1/16
N.O. LAKEFRONT FOG       62  60  93 CALM      30.17F VSB 1/4
SLIDELL        FOG       65  65 100 SE5       30.16F VSB 1/4
BATON ROUGE    FOG       57  57 100 SW3       30.15F VSB 1/4
BOOTHVILLE     FOG       64  63  96 SE3       30.18F VSB 1/4
BELLE CHASSE   FOG       66  63  90 CALM      30.15F VSB 1/4
BOGALUSA*      FOG       65  62  91 CALM      30.18F VSB 1/4
GALLIANO*      FOG       56  56  99 CALM      30.16F VSB<1/4
NEW ROADS*     FOG       50  49  98 CALM      30.16F VSB 1/2
GONZALES*      CLOUDY    64  64 100 CALM      30.14F FOG
HAMMOND*       NOT AVBL
HOUMA*         HVY RAIN  67  67 100 CALM      30.15F VSB<1/4
PORT FOURCHON* SUNNY     68  66  94 SE8       30.18F

$$

LAZ041-044-053-054-030800-
SOUTHWEST LOUISIANA

CITY           SKY/WX    TMP DP  RH WIND       PRES   REMARKS
LAKE CHARLES   FOG       53  53 100 NE8       30.15F VSB 1/2
LAFAYETTE      FOG       54  53  97 NE3       30.16F VSB 1/4
PATTERSON      CLOUDY    66  64  94 CALM      30.14F
SALT POINT       N/A     66  66 100 CALM      30.13F
NEW IBERIA     FOG       57  55  93 N6        30.16F VSB 1/4
CHENAULT AIRPK FOG       52  52 100 NE5       30.16F VSB 1/2

$$

LAZ027-028-030800-
CENTRAL LOUISIANA

CITY           SKY/WX    TMP DP  RH WIND       PRES   REMARKS
FORT POLK      FOG       47  47  98 E5        30.15F VSB 1/2
ALEXANDRIA INT FOG       45  45 100 E3        30.17F VSB 1
ALEXANDRIA     CLOUDY    44  44 100 NE3       30.18F

$$

LAZ001-002-030800-
NORTHWEST LOUISIANA

CITY           SKY/WX    TMP DP  RH WIND       PRES   REMARKS
SHREVEPORT     DRZL/FOG  42  41  96 E3        30.15F VSB 1
BARKSDALE AFB  CLOUDY    40  40 100 CALM      30.16F FOG
DTN SHREVEPORT CLOUDY    40  39  97 E6        30.17F FOG

$$

LAZ014-016-030800-
NORTHEAST LOUISIANA

CITY           SKY/WX    TMP DP  RH WIND       PRES   REMARKS
MONROE         FOG       40  40 100 CALM      30.19F VSB 1/2
TALLULAH       CLOUDY    45  44  97 CALM      30.18F FOG

$$




USA.gov is the U.S. government's official web portal to all federal, state and local government web resources and services.